Spokane, WA

12:25 AM PST on February 24, 2017 (GMT -0800)
Spokane International

Weather History for KGEG - April, 2013

Change the Weather History Date:

Sunday, April 7, 2013

  Actual Average Record
Temperature  
Mean Temperature 44 °F 45 °F  
Max Temperature 51 °F 55 °F 81 °F (1977)
Min Temperature 36 °F 36 °F 23 °F (1908)
Degree Days  
Heating Degree Days 21 20  
Month to date heating degree days 98 142  
Since 1 July heating degree days 5365 5738  
Cooling Degree Days 0 0  
Month to date cooling degree days 0 0  
Year to date cooling degree days 0 0  
Moisture  
Dew Point 36 °F    
Average Humidity 71    
Maximum Humidity 92    
Minimum Humidity 50    
Precipitation  
Precipitation 0.28 in 0.04 in 0.47 in (1922)
Month to date precipitation 0.54 0.33  
Year to date precipitation 3.73 5.06  
Snow  
Snow 0.00 in 0.00 in 3.50 in (1982)
Month to date snowfall 0.0 0.4  
Since 1 July snowfall 43.5 44.2  
Snow Depth 0.00 in    
Sea Level Pressure  
Sea Level Pressure 29.63 in    
Wind  
Wind Speed 12 mph (South)    
Max Wind Speed 35 mph    
Max Gust Speed 45 mph    
Visibility 9 miles    
Events Rain    
T = Trace of Precipitation, MM = Missing Value Source: NWS Daily Summary

Daily Weather History Graph

Daily Weather History Graph

Search for Another Location

Airport or City:

Trip Planner

Search our weather history database for the weather conditions in past years. The results will help you decide how hot, cold, wet, or windy it might be!

Date:

Astronomy

Apr. 07, 2013 Rise Set
Actual Time 6:16 AM PDT 7:28 PM PDT
Civil Twilight 5:44 AM PDT 8:00 PM PDT
Nautical Twilight 5:06 AM PDT 8:39 PM PDT
Astronomical Twilight 4:25 AM PDT 9:19 PM PDT
Moon 4:46 AM PDT (4/7) 4:57 PM PDT (4/7)
Length of Visible Light 14h 16m
Length of Day
13h 12m
Waning Crescent, 7% of the Moon is Illuminated
Apr 7
Waning Crescent
Apr 10
New
Apr 18
First Quarter
Apr 25
Full
May 2
Last Quarter

Hourly Weather History & Observations

Time (PDT) Temp. Windchill Dew Point Humidity Pressure Visibility Wind Dir Wind Speed Gust Speed Precip Events Conditions
12:53 AM 44.1 °F 38.1 °F 33.1 °F 65% 29.80 in 10.0 mi SSW 11.5 mph - N/A   Overcast
1:53 AM 43.0 °F 37.2 °F 35.1 °F 74% 29.78 in 10.0 mi SSW 10.4 mph - 0.00 in   Overcast
2:53 AM 42.1 °F 37.7 °F 36.0 °F 79% 29.75 in 10.0 mi South 6.9 mph - 0.00 in Rain Light Rain
3:53 AM 41.0 °F 37.1 °F 37.0 °F 86% 29.71 in 10.0 mi SSE 5.8 mph - 0.00 in   Overcast
4:53 AM 39.9 °F 35.8 °F 37.0 °F 89% 29.68 in 9.0 mi SE 5.8 mph - 0.01 in Rain Light Rain
5:19 AM 39.2 °F 34.2 °F 37.4 °F 93% 29.66 in 7.0 mi SE 6.9 mph - 0.01 in Rain Light Rain
5:53 AM 39.9 °F 35.1 °F 37.9 °F 93% 29.66 in 6.0 mi ESE 6.9 mph - 0.03 in Rain Light Rain
6:53 AM 39.0 °F 34.8 °F 37.0 °F 93% 29.64 in 4.0 mi ESE 5.8 mph - 0.05 in Rain Light Rain
7:53 AM 39.0 °F 32.8 °F 37.0 °F 93% 29.62 in 7.0 mi ESE 9.2 mph - 0.05 in Rain Rain
8:41 AM 39.2 °F 32.0 °F 35.6 °F 87% 29.58 in 5.0 mi ESE 11.5 mph - 0.06 in Rain Light Rain
8:53 AM 39.0 °F 32.8 °F 36.0 °F 89% 29.59 in 4.0 mi ESE 9.2 mph - 0.06 in Rain Light Rain
9:53 AM 41.0 °F 35.2 °F 37.9 °F 89% 29.57 in 10.0 mi ESE 9.2 mph - 0.01 in   Overcast
10:26 AM 42.8 °F 37.5 °F 39.2 °F 87% 29.54 in 8.0 mi SE 9.2 mph - 0.00 in Rain Light Rain
10:53 AM 44.1 °F 38.6 °F 41.0 °F 89% 29.55 in 10.0 mi SSE 10.4 mph - 0.02 in Rain Light Rain
11:32 AM 46.4 °F 37.5 °F 41.0 °F 81% 29.53 in 1.5 mi SSW 27.6 mph 44.9 mph 0.00 in Rain Light Rain
11:40 AM 44.6 °F 38.1 °F 39.2 °F 81% 29.53 in 2.0 mi SW 13.8 mph 36.8 mph 0.02 in Rain Light Rain
11:46 AM 44.6 °F 38.8 °F 41.0 °F 87% 29.53 in 7.0 mi SW 11.5 mph - 0.03 in Rain Light Rain
11:53 AM 46.0 °F 40.2 °F 42.1 °F 86% 29.54 in 10.0 mi SSW 12.7 mph - 0.03 in Rain Light Rain
12:45 PM 46.4 °F 39.0 °F 39.2 °F 76% 29.53 in 10.0 mi SSW 19.6 mph 29.9 mph 0.00 in Rain Light Rain
12:53 PM 46.9 °F - 39.9 °F 77% 29.54 in 10.0 mi SSW 19.6 mph 32.2 mph 0.00 in   Mostly Cloudy
1:20 PM 44.6 °F 36.6 °F 39.2 °F 81% 29.53 in 6.0 mi SW 19.6 mph 35.7 mph 0.01 in Rain Rain
1:46 PM 48.2 °F - 39.2 °F 71% 29.53 in 10.0 mi SW 25.3 mph 36.8 mph 0.02 in   Mostly Cloudy
1:53 PM 48.0 °F - 39.0 °F 71% 29.54 in 10.0 mi SW 24.2 mph 36.8 mph 0.02 in Rain Light Rain
2:53 PM 48.9 °F - 35.1 °F 59% 29.56 in 10.0 mi WSW 28.8 mph 39.1 mph 0.00 in   Mostly Cloudy
3:53 PM 48.0 °F - 33.1 °F 56% 29.60 in 10.0 mi WSW 23.0 mph 32.2 mph N/A   Mostly Cloudy
4:53 PM 48.0 °F - 32.0 °F 54% 29.63 in 10.0 mi WSW 20.7 mph - N/A   Mostly Cloudy
5:53 PM 48.0 °F - 30.0 °F 50% 29.64 in 10.0 mi SW 20.7 mph - N/A   Mostly Cloudy
6:53 PM 46.0 °F 41.0 °F 30.0 °F 54% 29.66 in 10.0 mi SW 10.4 mph - N/A   Overcast
7:53 PM 43.0 °F 37.2 °F 32.0 °F 65% 29.68 in 10.0 mi South 10.4 mph - N/A   Overcast
8:53 PM 41.0 °F 34.3 °F 32.0 °F 70% 29.71 in 10.0 mi South 11.5 mph 18.4 mph N/A   Mostly Cloudy
9:53 PM 39.9 °F 33.4 °F 34.0 °F 79% 29.74 in 10.0 mi South 10.4 mph 19.6 mph N/A   Mostly Cloudy
10:53 PM 39.0 °F 32.3 °F 33.1 °F 79% 29.74 in 10.0 mi South 10.4 mph - N/A   Mostly Cloudy
11:53 PM 37.0 °F 31.6 °F 33.1 °F 86% 29.76 in 10.0 mi South 6.9 mph - N/A   Mostly Cloudy